Location: Unspecified
(37.3333°N, 0.0000°E)
Time: 07:55:40
(UTC+00:00)

ISS - Visible Passes

Search period start: 21 May 2019 00:00
Search period end: 31 May 2019 00:00
Orbit: 407 x 410 km, 51.6° (Epoch: 21 May)

Date Brightness Start Highest point End Pass type
(mag) Time Alt. Az. Time Alt. Az. Time Alt. Az.
21 May-0.101:46:09ESE01:46:09ESE01:37:07NWvisible
21 May -2.2 03:19:22 20° S 03:19:22 20° S 03:20:41 10° SSE visible
21 May -2.1 19:53:50 10° WSW 19:56:56 37° NW 20:00:02 10° NE visible
22 May -0.5 20:41:20 10° NW 20:42:59 13° NNW 20:44:39 10° N visible
23 May -0.8 19:49:22 10° WNW 19:51:47 19° NNW 19:54:12 10° NNE visible
25 May -0.5 19:45:40 10° NW 19:46:46 11° NNW 19:47:52 10° N visible
25 May -0.5 23:00:39 10° N 23:01:29 13° N 23:01:29 13° N visible
26 May -0.6 22:10:36 10° N 22:11:10 10° NNE 22:11:44 10° NNE visible
27 May -0.6 22:54:31 10° NNW 22:55:24 15° NNW 22:55:24 15° NNW visible
28 May -1.2 22:03:53 10° NNW 22:06:01 16° NNE 22:06:01 16° NNE visible
29 May -0.9 21:13:28 10° N 21:14:48 12° NNE 21:16:08 10° NE visible
29 May -0.7 22:48:41 10° NW 22:49:23 15° NW 22:49:23 15° NW visible
30 May -1.9 21:57:49 10° NNW 22:00:04 28° N 22:00:04 28° N visible
